FENGYUN 1C DEB, 30312

Orbit data source: Space-Track

FENGYUN 1C DEB, 30312 is space debris in SSO originally from a launch on Mon, 10 May 1999 UTC launched from the Taiyaun Space Center, China (TSC). Fengyun 1C debris stems from the Chinese weather satellite Fengyun-1C, which was intentionally destroyed by a Chinese anti-satellite missile in 2007. This event dramatically increased the amount of space debris, with thousands of trackable fragments posing hazards to satellites and human spaceflight. The Fengyun 1C debris cloud has become a focal point in discussions about space sustainability and the need for international regulations to prevent the creation of new debris.

Loading next visibility...
Identifier
30312, 1999-025ZZ
Orbit
SSO
Country
Flag of CNCN / PRC
Related business
Manufacturer
Unknown
Mission
Spacecraft
Bus & Motor
Unknown
Mass
Unknown
Launch date (UTC)
1999-05-10 (27 years ago)
Launch vehicle
Unknown
Launch site
Taiyaun Space Center, China (TSC)
Object type
Payload
Rocket body
Debris
Shape & HBR
Unknown shape, 0.1 m
Radar Cross Section
Small (<0.1 m²)

Expand to show TLE details & history
Last TLE update: 1 day ago

TLE from 1 day ago
0 FENGYUN 1C DEB
1 30312U 99025ZZ  26104.17972684  .00003626  00000-0  98534-3 0  9990
2 30312  98.8561 194.1164 0011815 194.9969 224.7312 14.48135975996919
Epoch: 2026-04-14T04:18Z
TLE epoch observation values (Epoch: 2026-04-14T04:18:48.398Z)
Latitude
58.58602°
Longitude
-87.64483°
Altitude
747.589 km
Speed
7.483 km/s
True Right ascension
11h 57m 39s
True Declination
58° 25' 57"
Sunlit
Object was in daylight at epoch
Visualization orbit readout
Latitude
Unknown
Longitude
Unknown
Altitude
Unknown
Speed
Unknown
Apparent Right ascension
Unknown
Apparent Declination
Unknown
Sunlit
N/A
Visualization observer readout
Local Sidereal Time
14:18:29
Azimuth
Unknown
Elevation
Unknown
Doppler factor
Unknown
Orbital elements
Apogee altitude
737.268 km
Perigee altitude
720.474 km
Semi-major axis
7,107.008 km
Eccentricity
0.00118
Inclination
98.8561°
RAAN
194.1164°
Arg. of periapsis
194.9969°
True anomaly
224.63601°
Mean anomaly
224.7312°
Eccentric anomaly
224.6836°
Mean motion
3.62254 °/min
Orbital period
99.38 mins
BSTAR
0.00098534
Loading maneuver chart data...
Computing Atmospheric mass density...
Loading historical data...
Loading historical data...
Loading historical data...
Loading historical data...
Loading historical data...
Loading historical data...
Loading historical data...

Documentation

Showing up to 5 results
|